{"data":{"norad_id":48022,"intl_designator":"2021-024AX","name":"STARLINK-2298","alt_names":[],"object_type":"PAYLOAD","status":"ACTIVE","operator":null,"country":"US","launch_date":"2021-03-24","launch_site_code":"AFETR","launch_vehicle":null,"mission":null,"orbit_class":"UNKNOWN","rcs_meters":null,"size_class":null,"mass_kg":null,"dimensions":null,"purposes":["comms"],"wikipedia_slug":null,"has_3d_model":false,"image_url":null,"decayed_at":null,"tle_current":{"epoch":"2026-05-24T19:17:43.792512Z","epoch_age_seconds":95190,"freshness":"FRESH","line1":"1 48022U 21024AX  26144.80397908  .00058363  00000+0  10786-2 0  9994","line2":"2 48022  53.1244 332.1555 0002556 210.7828 149.3031 15.48528040286360","mean_motion":15.4852804,"eccentricity":0.0002556,"inclination_deg":53.1244,"raan_deg":332.1555,"arg_perigee_deg":210.7828,"mean_anomaly_deg":149.3031,"bstar":0.0010786,"rev_number":28636,"period_min":92.991535368,"perigee_km":419.29344415876,"apogee_km":422.76917899964,"semimajor_km":6799.1683115792,"source":"CELESTRAK","updated_at":"2026-05-25T13:38:16.640150Z"}}}